[[{"header":{"parameterUnit":"m.s-1","parameterCategory":1,"la1":30.2991,"la2":30.254,"lo1":-89.0895,"lo2":-89.0444,"dy":0.0017,"dx":0.0017,"nx":28,"ny":28,"refTime":"2024-08-27T03:00:00:Z","depth":0,"parameterNumber":2,"parameterNumberName":"U-component_of_WINDS"},"data":[0,0,0,0,0,0,0,0,0,0,0,0,0,0,0,0,0,0,0,0,0,0,0,0,0,0,0,0,0,0,0,0,0,0,0,0,0,0,0,0,0,0,0,0,0,0,0,0,0,0,0,0,0,0,0,0,0,0,-2.3929,-2.3928,0,-2.3877,-2.3877,-2.3876,-2.3842,-2.3842,-2.3842,-2.3842,-2.3784,-2.3782,-2.3781,0,0,0,0,0,0,0,0,0,0,0,0,0,-2.3995,-2.3994,-2.3929,-2.3928,-2.3928,-2.3877,-2.3877,-2.3876,-2.3842,-2.3842,-2.3842,-2.3842,-2.3784,-2.3783,-2.3781,0,0,0,0,0,0,0,0,0,0,0,0,0,-2.3957,-2.3994,-2.3929,-2.3905,-2.3902,-2.3877,-2.3877,-2.3876,-2.3842,-2.3842,-2.3842,-2.3841,-2.3785,-2.3783,-2.3781,-2.3774,0,0,-2.3775,-2.3774,0,0,0,0,0,0,0,0,-2.3959,-2.3955,-2.3909,-2.3907,-2.3903,-2.3866,-2.3879,-2.3842,-2.3842,-2.3865,-2.3842,-2.3841,-2.3811,-2.3807,-2.3798,-2.3772,-2.3769,-2.3774,-2.3773,-2.3772,-2.3772,0,0,0,0,0,0,0,-2.3962,-2.3957,-2.3908,-2.3908,-2.3905,-2.3896,-2.389,-2.3871,-2.384,-2.3863,-2.386,-2.3855,-2.3809,-2.38,-2.3796,-2.3768,-2.3774,-2.3773,-2.3771,-2.3771,-2.3735,-2.3735,0,0,0,0,0,0,-2.3969,-2.3959,-2.391,-2.3907,-2.3931,-2.3895,-2.3888,-2.3878,-2.384,-2.3834,-2.3855,-2.3854,-2.3803,-2.3798,-2.3794,-2.3784,-2.3772,-2.377,-2.3769,-2.3735,-2.3735,-2.3736,0,0,0,0,0,0,-2.397,-2.3965,-2.3912,-2.3932,-2.3925,-2.3894,-2.3883,-2.3877,-2.3868,-2.3835,-2.3828,-2.3851,-2.3803,-2.3797,-2.378,-2.3781,-2.377,-2.3768,-2.3735,-2.3735,-2.3735,-2.3764,0,0,0,0,0,0,-2.3972,-2.3966,-2.3963,-2.3933,-2.3924,-2.39,-2.3883,-2.3877,-2.3865,-2.3862,-2.3829,-2.3823,-2.3802,-2.3783,-2.3778,-2.3778,-2.3766,-2.3734,-2.3735,-2.3735,-2.3763,-2.3766,-2.3768,0,0,0,0,0,-2.3975,-2.3972,-2.3964,-2.3958,-2.3921,-2.39,-2.3895,-2.3872,-2.3865,-2.3862,-2.3841,-2.3824,-2.3783,-2.3782,-2.3776,-2.3775,-2.3734,-2.3735,-2.3735,-2.3762,-2.3765,-2.3768,0,0,0,0,0,0,-2.4002,-2.3968,-2.3958,-2.3945,-2.3926,-2.3895,-2.389,-2.3876,-2.3857,-2.3855,-2.3826,-2.3819,-2.3805,-2.3789,-2.3788,-2.3768,-2.3756,-2.3756,-2.3779,-2.3781,-2.3784,-2.3787,-2.3764,0,0,0,0,0,-2.4008,-2.3995,-2.3965,-2.3957,-2.3948,-2.3921,-2.3911,-2.3896,-2.3874,-2.3865,-2.3843,-2.3821,-2.3803,-2.3791,-2.3773,-2.3761,-2.3753,-2.3758,-2.3761,-2.3763,-2.3762,-2.3754,-2.3756,-2.3738,-2.3738,-2.3738,0,0,-2.4017,-2.3996,-2.399,-2.3962,-2.3945,-2.3932,-2.3914,-2.3901,-2.389,-2.3862,-2.3845,-2.3829,-2.3803,-2.3789,-2.3781,-2.3774,-2.3766,-2.3763,-2.3765,-2.3763,-2.3755,-2.3757,-2.3759,-2.3738,-2.3738,-2.3738,0,0,-2.4027,-2.4011,-2.4002,-2.3987,-2.3963,-2.3945,-2.3943,-2.3914,-2.3902,-2.3886,-2.3865,-2.3852,-2.3821,-2.3804,-2.3791,-2.3797,-2.378,-2.3792,-2.3803,-2.3796,-2.3798,-2.3799,-2.38,-2.3801,-2.3791,-2.3791,-2.3791,0,-2.4041,-2.4021,-2.3999,-2.3988,-2.3976,-2.3953,-2.3943,-2.3929,-2.3899,-2.3891,-2.3885,-2.3847,-2.3828,-2.3809,-2.3811,-2.3802,-2.3798,-2.3794,-2.38,-2.3801,-2.3801,-2.3802,-2.3803,-2.3793,-2.3793,-2.3792,-2.3792,0,-2.404,-2.4026,-2.4022,-2.3996,-2.3984,-2.3974,-2.395,-2.394,-2.3926,-2.3909,-2.3892,-2.3869,-2.3846,-2.384,-2.3825,-2.382,-2.3817,-2.3806,-2.3793,-2.3805,-2.3805,-2.3806,-2.3795,-2.3794,-2.3794,-2.3794,0,0,-2.4063,-2.4027,-2.4026,-2.4014,-2.3987,-2.3976,-2.3964,-2.3943,-2.3935,-2.3916,-2.3905,-2.3881,-2.3872,-2.3857,-2.384,-2.3835,-2.384,-2.3824,-2.3823,-2.3827,-2.3832,-2.384,-2.3841,-2.383,-2.383,-2.383,-2.3834,0,-2.4069,-2.4048,-2.4029,-2.4015,-2.4002,-2.3981,-2.3971,-2.3952,-2.3937,-2.3923,-2.3905,-2.3888,-2.3877,-2.3868,-2.3861,-2.3841,-2.3841,-2.3841,-2.3818,-2.3818,-2.3824,-2.3841,-2.3849,-2.3853,-2.3834,-2.3834,-2.3834,0,-2.4071,-2.4055,-2.404,-2.4015,-2.4009,-2.4,-2.398,-2.3968,-2.3946,-2.3935,-2.3921,-2.3904,-2.389,-2.3881,-2.3861,-2.3861,-2.3851,-2.384,-2.384,-2.3835,-2.3825,-2.3836,-2.3854,-2.3854,-2.3834,-2.3834,-2.3834,0,-2.4089,-2.4064,-2.4052,-2.4042,-2.4013,-2.4007,-2.3995,-2.3973,-2.3962,-2.3945,-2.3937,-2.3917,-2.3906,-2.3891,-2.3869,-2.3865,-2.3851,-2.384,-2.384,-2.3841,-2.3837,-2.3837,-2.3852,-2.3833,-2.3833,-2.3833,-2.3833,0,-2.4096,-2.4088,-2.406,-2.4052,-2.4042,-2.402,-2.401,-2.3996,-2.3977,-2.3966,-2.3946,-2.3935,-2.3908,-2.3894,-2.3877,-2.3862,-2.3858,-2.3847,-2.3843,-2.3848,-2.385,-2.384,-2.3839,-2.3833,-2.3833,-2.3833,-2.3833,0,-2.4114,-2.4095,-2.408,-2.4054,-2.4048,-2.4041,-2.4018,-2.401,-2.3994,-2.398,-2.3975,-2.395,-2.3932,-2.391,-2.3884,-2.3873,-2.386,-2.3854,-2.3868,-2.3865,-2.3866,-2.3866,-2.3875,-2.3874,-2.3857,-2.3857,-2.3857,0,-2.4119,-2.4112,-2.4086,-2.4078,-2.4067,-2.4053,-2.4043,-2.4021,-2.4011,-2.3987,-2.3981,-2.3963,-2.3947,-2.392,-2.3898,-2.3879,-2.3871,-2.3875,-2.3867,-2.3874,-2.387,-2.387,-2.3869,-2.3877,-2.3877,-2.3877,-2.3877,0,-2.413,-2.4121,-2.4107,-2.409,-2.4079,-2.4064,-2.4048,-2.4042,-2.4017,-2.4006,-2.3989,-2.3977,-2.3953,-2.3934,-2.3913,-2.3898,-2.3883,-2.3881,-2.3879,-2.3884,-2.3892,-2.3887,-2.3872,-2.388,-2.3879,-2.3879,-2.3879,-2.3879,-2.4141,-2.4134,-2.4115,-2.41,-2.4087,-2.4073,-2.4064,-2.4048,-2.4033,-2.4013,-2.4001,-2.3984,-2.3964,-2.3934,-2.392,-2.3906,-2.39,-2.3899,-2.3898,-2.3898,-2.3899,-2.3896,-2.3902,-2.3902,-2.3902,-2.3902,-2.3902,0,-2.415,-2.4137,-2.4124,-2.4104,-2.4092,-2.4081,-2.4064,-2.4054,-2.404,-2.4023,-2.4009,-2.3989,-2.3972,-2.395,-2.393,-2.3923,-2.3916,-2.3919,-2.3918,-2.3915,-2.3906,-2.3908,-2.3925,-2.3925,-2.3925,-2.3925,-2.3925,-2.3925,-2.4153,-2.4141,-2.4131,-2.4112,-2.4098,-2.4083,-2.4074,-2.4061,-2.4047,-2.4027,-2.4013,-2.3999,-2.398,-2.396,-2.3943,-2.3937,-2.393,-2.3935,-2.3927,-2.3918,-2.3916,-2.3914,-2.3916,-2.3934,-2.3934,-2.3937,-2.3937,-2.3937]},{"header":{"parameterUnit":"m.s-1","parameterCategory":1,"la1":30.2991,"la2":30.254,"lo1":-89.0895,"lo2":-89.0444,"dy":0.0017,"dx":0.0017,"nx":28,"ny":28,"refTime":"2024-08-27T03:00:00:Z","depth":0,"parameterNumber":3,"parameterNumberName":"V-component_of_WINDS"},"data":[0,0,0,0,0,0,0,0,0,0,0,0,0,0,0,0,0,0,0,0,0,0,0,0,0,0,0,0,0,0,0,0,0,0,0,0,0,0,0,0,0,0,0,0,0,0,0,0,0,0,0,0,0,0,0,0,0,0,3.6348,3.6347,0,3.6309,3.6308,3.6308,3.6314,3.6315,3.6316,3.6316,3.6271,3.6269,3.6267,0,0,0,0,0,0,0,0,0,0,0,0,0,3.6423,3.6422,3.6348,3.6347,3.6347,3.6309,3.6308,3.6308,3.6314,3.6315,3.6316,3.6317,3.6272,3.627,3.6267,0,0,0,0,0,0,0,0,0,0,0,0,0,3.6388,3.6421,3.6348,3.6346,3.6345,3.6309,3.6308,3.6308,3.6314,3.6315,3.6316,3.6317,3.6272,3.627,3.6267,3.6229,0,0,3.6258,3.6257,0,0,0,0,0,0,0,0,3.639,3.6385,3.6347,3.6346,3.6345,3.6318,3.6318,3.6281,3.6314,3.6326,3.6316,3.6318,3.6285,3.6282,3.6272,3.6227,3.6225,3.6258,3.6257,3.6255,3.6255,0,0,0,0,0,0,0,3.6392,3.6387,3.6332,3.6346,3.6345,3.6345,3.6341,3.6311,3.63,3.6325,3.6325,3.6321,3.6285,3.6274,3.6271,3.6224,3.6258,3.6256,3.6254,3.6253,3.6145,3.6144,0,0,0,0,0,0,3.6396,3.6389,3.6333,3.6331,3.6371,3.6343,3.6338,3.6325,3.63,3.6298,3.632,3.6321,3.6279,3.6274,3.6269,3.6223,3.6255,3.6253,3.6251,3.6146,3.6145,3.6143,0,0,0,0,0,0,3.6398,3.6391,3.6335,3.636,3.6353,3.634,3.6326,3.6324,3.6313,3.6297,3.6294,3.6311,3.6279,3.6273,3.6239,3.6221,3.6252,3.6249,3.6148,3.6146,3.6144,3.6129,0,0,0,0,0,0,3.64,3.6392,3.6378,3.636,3.6352,3.6307,3.6324,3.6322,3.6309,3.6311,3.6288,3.6285,3.628,3.6243,3.6236,3.6218,3.6247,3.6149,3.6147,3.6145,3.6131,3.6127,3.6124,0,0,0,0,0,3.6403,3.6375,3.6378,3.6371,3.6335,3.6306,3.6301,3.6297,3.6308,3.6293,3.6283,3.6286,3.6224,3.624,3.6232,3.6212,3.615,3.6147,3.6145,3.6133,3.6128,3.6124,0,0,0,0,0,0,3.639,3.6372,3.6375,3.6341,3.6325,3.6307,3.6289,3.6292,3.6271,3.6273,3.6267,3.6262,3.6227,3.6216,3.6234,3.6174,3.6189,3.6184,3.6182,3.6177,3.6173,3.6176,3.6244,0,0,0,0,0,3.6383,3.6363,3.6348,3.6319,3.6311,3.6301,3.6289,3.6287,3.6269,3.6262,3.6249,3.6231,3.6207,3.6192,3.6169,3.613,3.6124,3.6112,3.6109,3.6106,3.6101,3.6079,3.6073,3.6135,3.6135,3.6135,0,0,3.6369,3.6357,3.6344,3.6316,3.6304,3.6281,3.6296,3.6271,3.6254,3.6258,3.6226,3.6215,3.6194,3.6157,3.614,3.6147,3.6083,3.6102,3.61,3.6097,3.6076,3.607,3.6065,3.6133,3.6133,3.6133,0,0,3.6331,3.632,3.6295,3.6283,3.6264,3.6258,3.6252,3.6234,3.6227,3.6195,3.6197,3.6176,3.6136,3.6121,3.6107,3.6064,3.6066,3.6057,3.6036,3.6015,3.601,3.6006,3.5989,3.5984,3.6053,3.6053,3.6053,0,3.6315,3.6283,3.6281,3.6257,3.6244,3.6248,3.6221,3.6209,3.6183,3.6173,3.6182,3.6132,3.6118,3.6077,3.6067,3.6056,3.6048,3.6059,3.6011,3.6007,3.6003,3.5987,3.5981,3.6052,3.6052,3.6052,3.6052,0,3.6264,3.6241,3.6223,3.62,3.6185,3.6159,3.6152,3.6137,3.6136,3.6128,3.6095,3.6078,3.6052,3.6043,3.6041,3.6001,3.6006,3.6013,3.6028,3.5996,3.5981,3.5975,3.605,3.6051,3.6051,3.6051,0,0,3.6216,3.6193,3.6186,3.6176,3.6156,3.6138,3.6112,3.6088,3.6075,3.6057,3.6034,3.6,3.6006,3.5991,3.5988,3.5969,3.5935,3.5978,3.5978,3.597,3.5889,3.5884,3.5877,3.5937,3.5935,3.5934,3.5891,0,3.6176,3.6133,3.613,3.609,3.6069,3.6072,3.6049,3.6034,3.6026,3.6005,3.5996,3.5972,3.5982,3.5973,3.5955,3.5943,3.5918,3.5946,3.5913,3.5912,3.5918,3.5869,3.5864,3.5823,3.5885,3.5884,3.5883,0,3.6124,3.6107,3.6065,3.6048,3.6038,3.6018,3.5996,3.5977,3.5959,3.5954,3.5938,3.5937,3.5909,3.5925,3.5885,3.5904,3.589,3.5883,3.5881,3.5877,3.5895,3.5863,3.581,3.5804,3.5874,3.5875,3.5876,0,3.6093,3.6059,3.6029,3.602,3.6,3.5985,3.5975,3.5959,3.5944,3.5924,3.5915,3.5891,3.5878,3.5859,3.5851,3.5864,3.5811,3.5827,3.5805,3.5805,3.5793,3.5794,3.5736,3.5785,3.5785,3.5786,3.5786,0,3.6049,3.6023,3.6015,3.5997,3.5967,3.5964,3.5934,3.5925,3.591,3.5888,3.5889,3.5869,3.586,3.5838,3.5832,3.5799,3.5793,3.5787,3.5786,3.5787,3.5787,3.5777,3.578,3.5784,3.5784,3.5785,3.5785,0,3.6009,3.6003,3.5971,3.5955,3.595,3.5929,3.5914,3.5895,3.5888,3.5861,3.5854,3.5842,3.5815,3.5806,3.5774,3.5769,3.5731,3.5732,3.5738,3.5737,3.5716,3.5718,3.5649,3.5639,3.5696,3.5695,3.5695,0,3.5981,3.5961,3.5943,3.593,3.592,3.5898,3.5884,3.588,3.5865,3.5842,3.5826,3.5801,3.578,3.5737,3.5724,3.5699,3.5699,3.5677,3.5695,3.5697,3.5698,3.5699,3.5697,3.5673,3.5673,3.5672,3.5672,0,3.5931,3.5929,3.591,3.5889,3.5873,3.5856,3.5839,3.5828,3.5821,3.5803,3.5778,3.5762,3.5729,3.5703,3.5678,3.5666,3.5667,3.5666,3.566,3.566,3.5664,3.5661,3.5728,3.5668,3.5668,3.5668,3.5669,3.5669,3.5896,3.5878,3.5863,3.5841,3.5829,3.5813,3.5795,3.5786,3.5765,3.574,3.5737,3.5709,3.569,3.5657,3.5644,3.562,3.5626,3.5617,3.5614,3.5612,3.561,3.5669,3.5616,3.5616,3.5616,3.5616,3.5616,0,3.5846,3.5836,3.5816,3.5794,3.5776,3.5781,3.5763,3.5747,3.5723,3.5707,3.5687,3.5656,3.5631,3.5616,3.5591,3.5575,3.5574,3.5568,3.5569,3.5566,3.5607,3.5615,3.5569,3.5569,3.5569,3.5569,3.5569,3.5569,3.5818,3.5788,3.5784,3.5748,3.5738,3.5712,3.5702,3.5687,3.5673,3.564,3.562,3.5611,3.5595,3.5568,3.5544,3.554,3.553,3.5523,3.552,3.5558,3.5563,3.5568,3.5575,3.5521,3.5521,3.5481,3.548,3.548]}]]